Regional Weather Roundup
Issued by NWS

Home | Current Version | Previous Version | Text Only | Print | Product List | Glossary Off
Versions: 1 2 3 4 5 6 7 8 9 10 11 12 13 14 15 16 17 18 19 20 21 22 23 24 25 26 27 28 29 30 31 32 33 34 35 36 37 38 39 40 41 42 43 44 45 46 47 48 49 50

000
ASUS43 KMPX 311810
RWRMN
WEATHER ROUNDUP FOR MINNESOTA
NATIONAL WEATHER SERVICE TWIN CITIES/CHANHASSEN MN
100 PM CDT FRI JUL 31 2015


NOTE: "FAIR" INDICATES FEW OR NO CLOUDS BELOW 12,000 FEET WITH NO
SIGNIFICANT WEATHER AND/OR OBSTRUCTIONS TO VISIBILITY. N/A MEANS
CURRENT SKY AND/OR WEATHER CONDITIONS ARE NOT AVAILABLE.

MNZ060>063-068>070-311900-
   Twin Cities Metro

CITY           SKY/WX    TMP DP  RH WIND       PRES   REMARKS
TWIN CITIES    MOSUNNY   80  49  33 W21G26    30.06F
6HR MIN TEMP:  67; 6HR MAX TEMP:  80;

ST PAUL        SUNNY     80  50  34 NW23G30   30.05F
CRYSTAL        SUNNY     81  49  32 NW18G25   30.05F
BLAINE         MOSUNNY   81  50  34 NW16G26   30.05F
LAKEVILLE      SUNNY     77  54  44 NW15      30.07F
EDEN PRAIRIE   SUNNY     81  52  36 NW20      30.06F
6HR MIN TEMP:  65; 6HR MAX TEMP:  81;

SOUTH ST PAUL  SUNNY     80  47  31 NW13G25   30.05F
LAKE ELMO      FAIR      77  52  41 NW14G23   30.06F
$$
MNZ001>005-007-008-013>017-022>024-027-028-311900-
   Northwest Minnesota

CITY           SKY/WX    TMP DP  RH WIND       PRES   REMARKS
BEMIDJI        PTSUNNY   73  50  44 NW18G25   30.03F
HALLOCK        SUNNY     79  48  34 NW18G26   30.01F
ROSEAU         SUNNY     73  55  53 W15G23    29.99F
WARROAD        MOSUNNY   73  55  53 W18       29.97F
THIEF RVR FALL MOSUNNY   75  52  43 NW14G23   30.04S
CROOKSTON      SUNNY     79  52  38 NW16G25   30.05F
FOSSTON        SUNNY     75  48  38 W17G28    30.06F
DETROIT LAKES  SUNNY     77  48  36 NW16G22   30.10F
MOORHEAD       SUNNY     77  55  47 NW15      30.08F
PARK RAPIDS    MOSUNNY   78  48  34 NW26      30.05F
MAHNOMEN       FAIR      75  51  42 NW14G21   30.06F
$$
MNZ006-009>011-018-025>026-311900-
   North Central Minnesota

CITY           SKY/WX    TMP DP  RH WIND       PRES   REMARKS
BAUDETTE       PTSUNNY   73  53  49 NW15G24   29.96F
FLAG ISLAND    PTSUNNY   70  54  56 NW23      29.94F
INTL FALLS     MOSUNNY   71  54  54 NW18G25   29.93F
6HR MIN TEMP:  56; 6HR MAX TEMP:  74;

WASKISH        MOSUNNY   73  55  53 W16G23    29.99F
BIG FORK       MOSUNNY   72  52  49 NW7G21    29.98F
LONGVILLE      SUNNY     75  48  38 W15G23    30.03F
GRAND RAPIDS   PTSUNNY   75  50  41 W20G32    30.01S
CRANE LAKE     PTSUNNY   64  59  82 SW6       29.95F
ORR            MOSUNNY   73  50  43 W15G24    29.92F
COOK           MOSUNNY   72  54  53 W14G21    29.95F
WALKER         FAIR      74  50  42 NW16G24   30.03F
$$
MNZ012-019>021-037-311900-
   Northeast Minnesota

CITY           SKY/WX    TMP DP  RH WIND       PRES   REMARKS
DULUTH         PTSUNNY   72  51  47 NW16G26   29.97F
6HR MIN TEMP:  62; 6HR MAX TEMP:  76;

ELY            PTSUNNY   70  52  52 W14       29.93F
HIBBING        PTSUNNY   74  53  48 W15G24    29.97F
EVELETH        MOSUNNY   72  50  46 W16G32    29.97F
DULUTH HARBOR  MOSUNNY   75  55  50 W20G25    29.96F
TWO HARBORS    MOSUNNY   77  57  50 W12G22    29.92F
SILVER BAY     PTSUNNY   73  54  49 CALM      29.91F
GRAND MARAIS     N/A     75  52  44 NW8G17    29.86F
G MARAIS ARPRT MOSUNNY   66  48  52 NW10G20   29.91F
$$
MNZ029>031-032-039>041-046>048-054>057-064-311900-
   West Central Minnesota

CITY           SKY/WX    TMP DP  RH WIND       PRES   REMARKS
FERGUS FALLS   SUNNY     77  54  44 NW16G23   30.08F
WHEATON        SUNNY     77  52  41 NW10      30.12F
MORRIS         SUNNY     79  54  41 NW14      30.10F
ALEXANDRIA     SUNNY     77  53  43 NW14      30.11F
ELBOW LAKE     FAIR      76  55  47 NW13      30.10F
WADENA         SUNNY     77  50  38 W15G23    30.08S
GLENWOOD       SUNNY     79  50  36 NW16G25   30.11F
APPLETON       SUNNY     82  48  30 NW12      30.11F
BENSON         SUNNY     81  48  32 N13       30.11F
ORTONVILLE     SUNNY     81  48  32 NW9       30.12F
MADISON        SUNNY     81  52  36 NW7       30.12F
WILLMAR        FAIR      81  54  39 NW12      30.12F
$$
MNZ033>034-036-042>043-049>051-058-059-311900-
   Central Minnesota

CITY           SKY/WX    TMP DP  RH WIND       PRES   REMARKS
ST CLOUD       SUNNY     79  51  37 NW15G25   30.06F
6HR MIN TEMP:  64; 6HR MAX TEMP:  79;

SAUK CENTRE    FAIR      76  51  40 NW16G22   30.10S
PAYNESVILLE    SUNNY     76  51  41 W10G22    30.10F
AITKIN         MOSUNNY   77  52  41 NW10G21   30.02S
PINE RIVER     MOSUNNY   77  52  41 W15G25    30.07F
BRAINERD       SUNNY     77  47  34 NW18G26   30.05F
STAPLES        SUNNY     75  45  33 NW21G26   30.07F
LONG PRAIRIE   FAIR      77  48  36 W15G24    30.09F
LITTLE FALLS   SUNNY     77  43  29 W16G25    30.07F
LITCHFIELD     SUNNY     79  52  38 NW14G21   30.10F
BUFFALO        SUNNY     79  48  33 W15G23    30.08F
MAPLE LAKE     SUNNY     79  55  44 W13G22    30.09F
$$
MNZ037-044-045-052-053-311900-
   East Central Minnesota

CITY           SKY/WX    TMP DP  RH WIND       PRES   REMARKS
PRINCETON      SUNNY     79  52  38 NW15G22   30.06F
MORA           MOSUNNY   73  50  43 NW16G25   30.05F
CAMBRIDGE      SUNNY     81  57  44 NW15G23   30.03F
RUSH CITY      MOSUNNY   77  51  40 NW14G22   30.04S
MOOSE LAKE     MOSUNNY   73  52  46 NW12G17   29.99F
HINCKLEY       FAIR      75  54  46 NW13G20   30.02F
CLOQUET        MOSUNNY   75  48  38 NW18G25   29.99F
MCGREGOR       MOSUNNY   77  48  36 NW15G28   30.02F
$$
MNZ071>073-080-081-089-090-097-098-311900-
   Southwest Minnesota

CITY           SKY/WX    TMP DP  RH WIND       PRES   REMARKS
MONTEVIDEO     SUNNY     82  59  44 N8G16     30.13F
GRANITE FALLS  SUNNY     79  56  44 NW8       30.13F
CANBY          SUNNY     80  52  38 N7        30.14F
MARSHALL       SUNNY     81  50  34 N9        30.15F
REDWOOD FALLS  SUNNY     82  52  35 NW12G22   30.11F
OLIVIA         SUNNY     77  54  44 NW10      30.11F
PIPESTONE      SUNNY     81  46  30 CALM      30.16F
WINDOM         SUNNY     81  52  36 NW10G17   30.14F
WORTHINGTON    SUNNY     79  52  38 N10       30.16F
JACKSON        SUNNY     81  54  39 N6        30.15F
TRACY          SUNNY     79  55  44 N6        30.14F
SLAYTON        SUNNY     81  50  33 CALM      30.16F HAZE
$$
MNZ065>067-074>077-082>085-091>093-311900-
   South Central Minnesota

CITY           SKY/WX    TMP DP  RH WIND       PRES   REMARKS
MANKATO        SUNNY     79  55  44 NW15      30.10F
NEW ULM        SUNNY     79  54  41 NW12      30.11F
ST JAMES       SUNNY     81  57  44 W12       30.13S
FAIRMONT       SUNNY     79  52  38 NW13      30.13S
GLENCOE        SUNNY     79  58  48 NW14      30.09F
FARIBAULT      SUNNY     77  57  50 W9G18     30.09F
OWATONNA       SUNNY     79  54  41 W13G20    30.10F
WASECA         SUNNY     77  57  50 W13G18    30.11F
ALBERT LEA     SUNNY     79  57  47 W8        30.11F
$$
MNZ078>079-086>088-094>096-311900-
   Southeast Minnesota

CITY           SKY/WX    TMP DP  RH WIND       PRES   REMARKS
ROCHESTER      SUNNY     76  56  49 NW22G28   30.09F
6HR MIN TEMP:  62; 6HR MAX TEMP:  76;

RED WING       SUNNY     81  46  30 NW14G21   30.04S
STANTON        SUNNY     79  53  40 NW13G23   30.07S
DODGE CENTER   SUNNY     75  55  50 NW15G21   30.10F
WINONA         MOSUNNY   79  50  36 NW15G25   30.04F
AUSTIN         SUNNY     79  52  38 NW14G23   30.10F
PRESTON        SUNNY     75  51  42 NW17G29   30.09F
$$
ABBREVIATIONS USED IN REMARKS
   TC - TEMPERATURES IN CELSIUS
  WCI - WIND CHILL INDEX
   HX - HEAT INDEX
  VSB - VISIBILITY
$$


USA.gov is the U.S. government's official web portal to all federal, state and local government web resources and services.